EHI
3 3 4 4 4 5 6 6 5 4 3 3 3 3 3 3 3 3 3 3 3 3 3 3 3 3 3 3 3 3 3 3 3 3 3 3 3 3 3 3 3 3 3
3 3 4 4 4 5 6 6 5 4 3 3 3 3 3 3 3 3 3 3 3 3 3 3 3 3 3 3 3 3 3 4 3 3 3 3 3 3 3 3 4 3 3
4 3 4 5 5 5 6 6 6 5 4 3 3 3 3 3 3 3 3 3 3 3 3 3 3 3 3 3 3 3 4 4 4 3 3 3 3 3 3 4 4 4 3
5 4 5 6 5 5 6 6 6 5 4 3 3 3 3 3 3 3 3 3 3 3 3 3 3 3 3 4 3 3 4 4 4 3 3 3 3 3 3 3 3 3 2
5 4 6 8 8 6 5 4 4 4 3 3 3 3 3 3 3 3 3 3 3 3 3 3 3 3 4 4 4 3 4 4 4 3 3 3 3 3 3 1 1 1 2
6 5 7 12 12 7 5 4 3 3 3 3 3 3 3 3 3 3 3 4 3 3 3 3 3 3 3 4 3 3 3 4 3 3 3 3 3 3 3 1 1 2 2
6 6 9 13 13 9 7 6 4 3 3 3 3 3 3 3 3 3 4 4 4 3 3 3 3 3 3 3 3 3 3 3 3 3 3 3 3 3 3 2 2 2 2
6 6 7 10 9 8 8 7 5 3 3 3 3 3 3 3 3 3 3 4 4 4 3 3 3 3 3 3 3 3 3 3 3 3 3 3 3 3 3 3 2 2 2
4 4 5 5 5 5 6 7 5 4 3 3 3 4 4 4 3 3 3 3 4 3 3 3 3 3 3 3 3 3 3 3 3 3 3 3 3 3 3 3 3 3 3
3 3 3 3 3 3 4 6 5 4 4 4 4 5 5 4 4 3 3 3 3 3 3 3 3 3 3 3 3 3 3 3 3 3 3 3 3 3 3 3 3 4 4
3 3 3 3 3 3 4 5 4 4 5 4 4 5 4 4 3 3 4 3 3 3 3 3 3 3 3 3 3 3 3 3 3 3 3 3 3 3 3 3 3 3 4
3 3 4 4 3 3 3 4 4 4 4 4 4 4 3 3 3 4 4 4 3 3 3 3 3 3 3 3 3 3 3 3 3 3 3 3 3 3 3 3 3 3 3
3 4 4 4 4 3 3 3 3 4 3 3 3 3 3 3 3 3 4 3 3 3 3 3 3 3 3 3 3 3 3 3 3 3 3 3 3 3 3 3 3 3 3
4 4 4 4 3 2 2 3 3 3 3 3 3 3 3 3 3 3 3 3 3 3 3 3 3 3 3 3 3 3 3 3 3 3 3 3 3 3 3 3 4 3 3
5 5 3 2 1 1 1 1 2 2 3 3 3 3 3 3 3 3 3 3 3 3 3 3 3 3 3 3 3 3 3 3 3 3 3 3 3 4 3 4 5 4 4
5 4 3 1 0 0 0 0 1 1 1 3 3 3 3 3 3 3 3 3 3 3 3 3 3 3 3 3 3 3 3 3 3 3 3 3 4 4 4 5 5 5 5
4 4 4 3 2 1 0 0 1 1 1 3 3 3 3 3 3 3 3 3 3 3 3 3 3 3 3 3 3 3 3 3 3 3 3 3 3 4 5 6 6 6 6
5 5 6 6 5 3 2 2 3 3 3 3 3 3 3 3 3 3 3 3 3 3 3 3 3 3 3 3 3 3 3 3 3 3 3 3 3 3 4 5 7 6 6
11 9 9 9 7 6 5 5 6 4 3 2 3 3 3 3 3 3 3 3 3 3 3 3 3 3 3 3 3 3 3 3 3 3 3 3 3 3 3 4 5 5 4
20 18 16 12 9 8 7 7 7 5 2 1 1 2 2 2 3 3 3 2 2 3 3 3 3 2 3 3 3 3 3 2 2 2 3 3 3 3 3 3 3 3 3
30 29 26 20 15 12 10 9 8 5 2 1 0 1 1 1 1 2 1 1 1 1 2 3 3 3 3 3 3 2 1 1 1 1 1 2 2 2 2 3 3 3 3
35 35 34 28 20 14 11 10 8 5 4 3 2 1 1 0 1 1 0 0 0 0 1 1 2 2 2 2 2 1 0 0 0 0 0 1 1 1 1 1 2 3 2
36 35 34 30 23 15 11 9 7 6 6 5 4 3 2 2 2 1 1 1 0 0 0 0 1 1 1 1 1 0 0 0 0 0 0 0 0 0 0 0 1 2 2
38 34 29 25 21 15 12 10 7 6 6 6 5 4 3 3 3 3 2 2 1 1 1 1 1 0 0 0 0 0 0 0 0 0 0 0 0 0 0 0 0 1 2
39 33 25 20 18 16 14 11 8 7 6 5 4 3 3 3 3 3 3 3 3 2 2 2 2 1 0 0 0 0 0 0 0 0 0 0 0 0 0 0 0 1 2
35 30 24 19 17 17 15 12 9 7 6 4 3 3 3 3 3 3 3 3 3 3 3 3 3 2 1 0 0 0 0 0 0 0 0 0 0 0 0 0 0 0 1
Wind_Speed
2 3 9 11 12 12 13 13 13 13 13 13 13 13 13 13 13 13 13 13 13 13 13 13 12 13 13 13 13 12 12 12 13 13 14 14 14 14 15 14 13 11 15
4 4 9 11 11 12 12 12 13 13 13 13 13 12 12 12 12 12 12 12 12 13 13 13 13 13 13 13 12 12 12 12 12 12 13 12 13 13 14 14 13 9 14
5 4 7 11 11 12 12 12 12 12 12 12 12 12 12 12 12 12 12 12 12 13 13 13 13 13 12 12 12 12 12 12 12 12 12 8 9 12 13 13 13 14 14
6 4 6 11 11 11 11 11 11 12 12 11 11 11 11 11 11 11 12 12 12 12 13 13 12 12 12 12 12 11 12 12 12 12 7 7 7 11 12 13 13 13 13
5 4 6 11 11 11 11 10 11 11 11 11 11 11 11 11 11 11 11 12 12 12 12 12 12 12 12 11 11 11 11 12 12 10 7 6 6 11 12 12 12 13 12
5 4 5 11 11 10 10 10 10 10 10 11 10 10 11 11 11 11 11 11 11 11 12 12 12 12 11 10 11 11 11 12 11 7 6 6 5 10 12 12 12 12 12
5 3 5 10 10 10 10 10 10 10 10 10 10 10 10 10 10 11 11 11 11 11 11 11 11 10 10 10 11 11 11 12 8 7 6 5 6 10 12 11 11 11 11
5 4 4 9 10 9 9 9 9 9 9 10 10 10 10 9 10 10 10 10 10 10 10 10 10 10 9 9 10 11 11 11 8 7 6 5 7 10 12 11 11 11 11
4 3 2 3 5 8 9 9 9 9 8 9 9 9 9 9 9 9 9 9 9 9 9 9 9 9 8 8 9 10 10 10 6 5 6 4 7 9 11 10 10 10 10
3 3 2 3 3 3 4 8 8 8 8 8 8 8 8 8 8 8 7 7 8 8 8 8 8 8 8 8 8 9 10 8 5 5 3 5 8 9 10 9 9 10 10
4 2 2 2 2 2 2 4 5 6 6 6 5 6 5 4 3 3 5 6 7 7 7 7 7 8 7 7 8 9 8 3 4 3 3 6 8 8 9 9 9 9 9
6 4 2 2 2 2 2 3 2 2 3 3 2 3 3 2 2 2 3 4 5 5 6 6 7 7 5 3 5 6 3 4 3 3 3 6 7 8 8 8 8 8 8
6 5 4 3 3 2 1 2 1 1 2 2 2 2 2 2 2 2 2 2 3 4 3 4 4 3 2 2 3 2 3 3 2 2 3 7 7 8 8 8 7 8 8
5 5 4 4 3 2 2 2 2 1 1 1 1 2 2 1 1 1 1 1 1 1 2 2 1 2 2 3 3 3 3 2 2 1 3 7 7 7 8 7 7 7 7
6 5 4 4 4 3 2 2 2 2 1 1 1 1 2 1 1 0 0 0 1 1 1 1 1 2 2 2 2 3 3 3 3 2 2 6 7 7 8 8 8 8 8
7 6 5 5 4 4 3 2 2 2 2 1 2 2 3 2 1 1 0 0 0 0 0 1 1 1 1 1 2 2 3 3 3 3 2 4 7 7 8 8 8 8 8
7 6 6 6 4 4 4 4 3 2 2 2 2 2 3 3 3 2 1 1 1 0 0 1 1 1 1 1 1 2 2 2 3 3 3 2 3 6 8 8 8 8 9
7 6 6 6 5 5 4 3 2 2 2 2 2 2 3 3 3 2 2 2 1 1 1 1 1 1 1 1 1 1 1 2 3 3 3 3 3 3 5 8 8 8 9
7 6 6 5 5 5 4 3 2 2 2 2 2 2 2 3 3 2 2 2 1 1 1 1 1 1 1 1 1 1 1 2 3 3 4 5 4 4 3 5 8 8 10
5 5 6 5 5 4 2 2 1 1 1 1 2 2 2 2 3 3 2 2 2 2 1 1 1 1 1 1 1 0 1 2 2 3 4 4 4 6 5 5 4 6 10
5 5 6 5 4 4 2 2 2 2 1 1 1 2 3 2 2 2 2 2 2 2 3 2 2 1 1 1 1 1 1 1 2 2 3 3 5 5 5 5 5 5 4
6 5 5 5 5 5 3 2 2 2 1 1 1 1 2 3 3 3 3 2 3 2 3 3 2 2 1 2 2 1 1 2 2 1 2 3 4 3 5 6 5 5 5
6 6 6 5 5 4 4 2 2 1 1 0 1 1 2 3 3 2 3 3 3 3 3 3 3 4 2 1 1 3 2 2 2 2 1 2 2 2 3 4 5 6 6
6 5 4 4 4 3 4 3 3 3 2 2 1 2 2 2 2 3 3 3 3 3 3 3 4 3 3 2 1 1 2 2 2 1 2 1 2 3 3 3 4 5 5
5 5 4 4 3 3 3 4 3 2 2 1 1 2 2 2 2 3 3 3 3 3 3 3 3 3 3 3 2 2 2 1 2 2 2 2 1 2 2 3 3 3 4
5 4 4 4 3 3 3 3 3 3 2 1 1 1 1 1 2 2 2 2 3 2 3 3 3 3 3 3 2 2 2 2 3 3 3 2 2 2 1 1 2 2 2
Wind_Direction
138 144 123 112 107 103 100 98 98 100 101 101 101 102 102 103 104 104 103 102 103 103 104 104 105 108 111 112 112 112 116 120 119 119 118 117 117 115 112 110 111 112 115
141 138 125 115 110 105 102 101 101 102 103 103 103 103 103 103 104 104 103 103 104 105 105 105 105 107 108 109 110 110 113 116 118 117 115 115 118 116 116 118 118 119 118
124 126 123 118 113 109 107 104 103 103 104 104 104 104 103 103 103 104 104 104 104 105 105 105 105 105 107 109 109 109 110 110 111 111 106 104 115 119 120 120 120 120 118
126 123 129 124 119 114 110 107 106 105 105 105 105 104 103 103 104 105 105 104 104 105 107 106 105 105 107 109 109 107 107 106 105 103 95 100 111 120 121 120 119 120 119
122 126 140 129 124 119 114 110 109 109 108 106 106 104 103 103 103 104 104 104 103 104 107 107 105 107 108 109 111 110 110 108 103 95 90 89 99 120 120 120 120 121 121
121 126 142 132 128 123 119 116 112 111 110 108 105 103 104 104 105 105 104 104 103 104 105 106 106 106 109 112 114 113 112 107 99 94 93 95 104 122 121 120 120 119 122
127 131 142 135 132 129 125 121 116 113 111 108 106 104 104 103 103 103 103 103 103 104 105 107 107 106 108 112 115 115 114 113 106 101 98 100 111 120 120 120 120 122 122
132 130 137 140 136 133 130 126 121 118 115 113 110 107 105 103 103 103 103 103 104 105 106 107 106 104 105 111 116 118 118 119 115 111 107 109 119 120 120 122 123 125 124
119 117 115 127 135 138 135 130 125 122 119 116 114 111 109 108 106 105 103 104 105 105 106 106 105 101 101 109 118 122 121 119 115 119 122 117 126 126 126 127 127 127 127
112 110 110 104 102 109 128 136 133 129 125 122 120 116 113 109 106 105 101 104 106 106 106 106 103 100 98 106 115 117 119 115 114 115 117 132 137 136 134 133 134 134 132
157 136 125 116 107 105 124 140 132 130 124 118 116 113 93 63 64 84 104 108 108 108 105 103 100 96 89 92 108 111 111 108 116 120 125 144 148 146 144 143 140 140 141
181 180 161 150 140 133 146 100 77 82 83 76 69 77 70 61 46 67 64 98 99 98 96 95 92 87 81 76 92 99 102 115 122 134 150 155 158 155 152 150 149 149 150
181 184 176 169 160 152 115 109 86 77 82 75 77 88 80 59 37 39 32 34 44 57 54 64 68 72 88 100 102 111 119 119 133 148 163 165 168 167 164 162 162 162 163
176 190 178 173 168 166 144 128 122 120 120 116 109 114 102 84 42 32 36 32 39 41 48 52 65 78 99 120 132 135 138 140 147 155 179 179 181 179 176 176 175 174 173
180 187 180 179 180 172 155 166 157 168 169 179 175 164 152 152 187 237 352 34 34 41 60 59 62 75 85 111 145 155 161 162 164 172 191 195 192 192 190 189 187 186 183
185 186 178 184 185 177 172 178 180 182 177 180 195 200 185 180 185 193 244 283 290 286 66 102 109 103 90 133 163 167 177 174 179 184 199 210 208 206 204 203 201 199 197
186 182 181 188 179 182 187 195 188 181 177 189 204 200 194 192 188 189 210 239 249 210 93 79 92 96 120 143 168 181 185 190 188 198 204 212 218 218 213 211 212 210 209
179 178 186 188 177 188 193 195 191 174 177 199 202 193 202 199 189 184 201 230 216 160 150 144 128 108 117 154 194 214 202 200 204 209 213 214 216 223 225 219 216 217 219
181 176 178 178 178 190 191 180 173 166 184 197 191 193 205 195 181 181 201 221 189 162 175 202 153 150 170 197 216 230 225 220 216 219 222 223 221 223 226 233 231 228 229
172 168 171 174 177 169 161 143 139 165 202 190 188 202 203 194 183 179 195 199 170 165 191 192 164 145 163 184 203 215 264 242 227 226 229 227 227 229 229 233 238 242 241
161 164 172 174 169 155 151 163 169 199 211 199 204 205 204 204 192 186 201 193 180 189 207 193 167 158 156 148 107 18 334 288 242 238 232 231 234 233 229 229 231 235 243
173 173 173 174 177 178 173 162 163 162 181 198 221 214 215 209 202 203 206 205 194 194 203 194 172 157 166 158 147 114 348 340 326 259 231 229 237 233 234 234 231 233 238
176 182 183 181 183 184 169 137 112 89 68 139 234 243 238 219 210 208 207 207 202 193 205 202 186 176 181 181 166 154 162 234 298 320 280 246 236 227 237 240 235 235 235
185 177 169 166 172 176 163 161 170 178 191 214 218 235 255 230 219 217 217 209 205 197 203 206 191 182 170 184 186 194 180 170 183 304 323 293 259 245 245 243 242 238 235
160 155 153 148 162 167 166 173 173 188 196 207 213 234 256 264 247 235 228 216 209 204 206 203 188 184 178 178 181 175 169 169 181 187 268 304 309 266 252 249 251 248 241
139 140 142 147 164 167 167 171 177 188 188 203 244 251 263 270 264 248 232 224 217 215 213 208 199 189 187 183 187 183 177 179 188 185 219 257 283 292 286 273 264 264 256